TVF3704 LFLL-LGIR

Flight info

Callsign TVF3704
Flight time 2h 55m
Altitude 35000
Route RISOR T47 GEMLA DCT VANAS DCT MEDAM DCT NITAM DCT MOGBO DCT IDONA DCT SOVAN DCT RITEB DCT EVULI DCT VEBOX DCT LATAN DCT EKTOS DCT MIL UL617 XAVIS
Aircraft B738/M-SDE2E3FGHIRWXY/LB1

Departure

Time 2026-05-06 13:42
Airport Lyon Saint-Exupéry Airport (LFLL)

Arrival

Time 2026-05-06 16:38
Airport Heraklion International Nikos Kazantzakis Airport (LGIR)
Time Latitude Longitude Altitude Speed Heading
2026-05-06 13:38 45.71682 5.08462 801 ft 9 kts 99°
2026-05-06 13:38 45.71635 5.08502 802 ft 9 kts 176°
2026-05-06 13:38 45.71564 5.08509 802 ft 12 kts 175°
2026-05-06 13:39 45.71474 5.08519 804 ft 13 kts 175°
2026-05-06 13:39 45.71385 5.08530 810 ft 13 kts 175°
2026-05-06 13:39 45.71297 5.08541 812 ft 13 kts 175°
2026-05-06 13:39 45.71204 5.08553 813 ft 14 kts 175°
2026-05-06 13:40 45.71123 5.08619 817 ft 14 kts 115°
2026-05-06 13:40 45.71095 5.08754 818 ft 15 kts 105°
2026-05-06 13:40 45.71075 5.08915 820 ft 16 kts 88°
2026-05-06 13:40 45.71107 5.09028 820 ft 10 kts
2026-05-06 13:41 45.71131 5.09027 819 ft 0 kts 354°
2026-05-06 13:41 45.71132 5.09027 819 ft 1 kts 354°
2026-05-06 13:41 45.71395 5.08994 815 ft 83 kts 355°
2026-05-06 13:41 45.72239 5.08892 801 ft 161 kts 355°
2026-05-06 13:42 45.73534 5.08738 1208 ft 199 kts 355°
2026-05-06 13:42 45.74968 5.08575 2249 ft 212 kts 356°
2026-05-06 13:42 45.76448 5.08404 3276 ft 211 kts 354°
2026-05-06 13:42 45.77948 5.08219 3852 ft 224 kts 354°
2026-05-06 13:43 45.79585 5.08008 4136 ft 244 kts 353°
2026-05-06 13:43 45.81302 5.07787 4778 ft 250 kts 354°
2026-05-06 13:43 45.82998 5.08128 5546 ft 254 kts 26°
2026-05-06 13:43 45.84320 5.09787 6405 ft 256 kts 58°
2026-05-06 13:44 45.84898 5.12187 7158 ft 259 kts 88°
2026-05-06 13:44 45.84596 5.14709 7908 ft 259 kts 117°
2026-05-06 13:44 45.83471 5.16697 8597 ft 260 kts 149°
2026-05-06 13:44 45.81811 5.17669 9379 ft 258 kts 169°
2026-05-06 13:45 45.80040 5.18149 10124 ft 261 kts 173°
2026-05-06 13:45 45.76451 5.19023 11559 ft 266 kts 172°
2026-05-06 13:45 45.74619 5.19496 12290 ft 269 kts 172°
2026-05-06 13:46 45.72774 5.20022 13013 ft 273 kts 165°
2026-05-06 13:46 45.71117 5.21434 13570 ft 289 kts 136°
2026-05-06 13:46 45.69825 5.23800 13765 ft 314 kts 127°
2026-05-06 13:46 45.68540 5.26478 13932 ft 337 kts 126°
2026-05-06 13:47 45.67181 5.29329 14169 ft 354 kts 127°
2026-05-06 13:47 45.65764 5.32260 14750 ft 360 kts 127°
2026-05-06 13:47 45.64348 5.35150 15487 ft 360 kts 127°
2026-05-06 13:47 45.62897 5.38093 16162 ft 363 kts 127°
2026-05-06 13:48 45.61427 5.41065 16816 ft 367 kts 127°
2026-05-06 13:48 45.59945 5.44057 17474 ft 370 kts 127°
2026-05-06 13:48 45.58450 5.47074 18135 ft 373 kts 128°
2026-05-06 13:48 45.56953 5.50096 18873 ft 371 kts 128°
2026-05-06 13:49 45.55459 5.53109 19504 ft 373 kts 128°
2026-05-06 13:49 45.53941 5.56164 19986 ft 379 kts 128°
2026-05-06 13:49 45.52404 5.59258 20504 ft 383 kts 127°
2026-05-06 13:49 45.51234 5.62670 20931 ft 396 kts 107°
2026-05-06 13:50 45.50965 5.66577 21606 ft 399 kts 88°
2026-05-06 13:50 45.51299 5.70492 22361 ft 398 kts 84°
2026-05-06 13:50 45.51705 5.74424 22846 ft 403 kts 84°
2026-05-06 13:50 45.52117 5.78426 23116 ft 411 kts 84°
2026-05-06 13:51 45.52518 5.82487 23573 ft 415 kts 84°
2026-05-06 13:51 45.52906 5.86581 23981 ft 417 kts 85°
2026-05-06 13:51 45.53286 5.90716 24221 ft 425 kts 86°
2026-05-06 13:51 45.53663 5.94872 24562 ft 429 kts 86°
2026-05-06 13:52 45.54050 5.99095 24965 ft 431 kts 85°
2026-05-06 13:52 45.54458 6.03361 25312 ft 435 kts 85°
2026-05-06 13:52 45.54873 6.07669 25626 ft 440 kts 85°
2026-05-06 13:52 45.55289 6.12008 25976 ft 444 kts 86°
2026-05-06 13:53 45.55703 6.16402 26334 ft 447 kts 86°
2026-05-06 13:53 45.56091 6.20836 26645 ft 451 kts 87°
2026-05-06 13:53 45.56466 6.25295 26910 ft 455 kts 88°
2026-05-06 13:53 45.56765 6.29811 27151 ft 458 kts 94°
2026-05-06 13:54 45.56569 6.34326 27440 ft 455 kts 104°
2026-05-06 13:54 45.55924 6.38681 27813 ft 450 kts 113°
2026-05-06 13:54 45.54833 6.42844 28186 ft 445 kts 119°
2026-05-06 13:54 45.53638 6.46916 28659 ft 445 kts 120°
2026-05-06 13:55 45.52432 6.51026 28881 ft 451 kts 120°
2026-05-06 13:55 45.51237 6.55157 29085 ft 457 kts 119°
2026-05-06 13:55 45.50041 6.59367 29427 ft 459 kts 119°
2026-05-06 13:55 45.48848 6.63599 29718 ft 461 kts 120°
2026-05-06 13:56 45.47649 6.67836 30121 ft 460 kts 120°
2026-05-06 13:56 45.46234 6.71897 30359 ft 453 kts 130°
2026-05-06 13:56 45.44345 6.75440 30476 ft 445 kts 140°
2026-05-06 13:56 45.42121 6.78435 30679 ft 434 kts 150°
2026-05-06 13:57 45.39661 6.80891 30933 ft 429 kts 153°
2026-05-06 13:57 45.37225 6.83238 31299 ft 428 kts 153°
2026-05-06 13:57 45.34763 6.85653 31585 ft 429 kts 153°
2026-05-06 13:57 45.32298 6.88103 31821 ft 431 kts 152°
2026-05-06 13:58 45.29847 6.90552 32179 ft 430 kts 152°
2026-05-06 13:58 45.27428 6.92973 32553 ft 429 kts 152°
2026-05-06 13:58 45.25072 6.95632 32800 ft 436 kts 145°
2026-05-06 13:58 45.23629 6.97627 33133 ft 434 kts 143°
2026-05-06 13:59 45.21513 7.00644 33783 ft 427 kts 143°
2026-05-06 13:59 45.19414 7.03619 34060 ft 428 kts 143°
2026-05-06 13:59 45.15115 7.09588 34263 ft 435 kts 143°
2026-05-06 14:00 45.12945 7.12570 34481 ft 435 kts 143°
2026-05-06 14:00 45.10797 7.15590 34681 ft 437 kts 140°
2026-05-06 14:00 45.08902 7.18961 34810 ft 447 kts 133°
2026-05-06 14:00 45.07124 7.22613 35046 ft 447 kts 132°
2026-05-06 14:01 45.05374 7.26252 35238 ft 447 kts 132°
2026-05-06 14:01 45.03631 7.29843 35365 ft 448 kts 132°
2026-05-06 14:01 45.01848 7.33467 35584 ft 448 kts 132°
2026-05-06 14:01 45.00062 7.37066 35826 ft 447 kts 132°
2026-05-06 14:02 44.98268 7.40667 35989 ft 447 kts 132°
2026-05-06 14:02 44.96490 7.44291 36123 ft 449 kts 131°
2026-05-06 14:02 44.94731 7.47960 36263 ft 450 kts 131°
2026-05-06 14:02 44.93009 7.51586 36393 ft 451 kts 131°
2026-05-06 14:03 44.91257 7.55283 36573 ft 451 kts 130°
2026-05-06 14:03 44.89502 7.58976 36753 ft 451 kts 130°
2026-05-06 14:03 44.85991 7.66323 36781 ft 455 kts 131°
2026-05-06 14:04 44.82440 7.73721 36799 ft 453 kts 131°
2026-05-06 14:04 44.78930 7.81010 36790 ft 451 kts 131°
2026-05-06 14:05 44.75396 7.88326 36792 ft 450 kts 131°
2026-05-06 14:05 44.71886 7.95572 36782 ft 449 kts 131°
2026-05-06 14:06 44.68354 8.02847 36810 ft 448 kts 132°
2026-05-06 14:06 44.64847 8.10050 36802 ft 448 kts 132°
2026-05-06 14:07 44.61310 8.17299 36799 ft 448 kts 132°
2026-05-06 14:07 44.57790 8.24493 36787 ft 450 kts 132°
2026-05-06 14:08 44.54237 8.31738 36817 ft 451 kts 133°
2026-05-06 14:08 44.50685 8.38960 36817 ft 453 kts 133°
2026-05-06 14:09 44.47090 8.46253 36838 ft 455 kts 133°
2026-05-06 14:09 44.43477 8.53568 36869 ft 456 kts 133°
2026-05-06 14:10 44.39855 8.60877 36879 ft 458 kts 133°
2026-05-06 14:10 44.36245 8.68150 36884 ft 458 kts 133°
2026-05-06 14:11 44.32610 8.75453 36861 ft 457 kts 133°
2026-05-06 14:11 44.28986 8.82717 36838 ft 456 kts 133°
2026-05-06 14:12 44.25358 8.89967 36841 ft 455 kts 133°
2026-05-06 14:12 44.21738 8.97185 36866 ft 454 kts 133°
2026-05-06 14:13 44.18113 9.04392 36872 ft 454 kts 133°
2026-05-06 14:13 44.14487 9.11585 36853 ft 453 kts 132°
2026-05-06 14:14 44.10868 9.18749 36874 ft 453 kts 132°
2026-05-06 14:14 44.07244 9.25903 36887 ft 453 kts 132°
2026-05-06 14:15 44.03615 9.33051 36884 ft 452 kts 133°
2026-05-06 14:15 43.99981 9.40192 36894 ft 452 kts 133°
2026-05-06 14:16 43.96458 9.47396 36855 ft 456 kts 130°
2026-05-06 14:16 43.93120 9.54875 36914 ft 457 kts 129°
2026-05-06 14:17 43.89794 9.62390 36925 ft 457 kts 129°
2026-05-06 14:17 43.86431 9.69897 36920 ft 459 kts 129°
2026-05-06 14:18 43.83037 9.77407 36909 ft 460 kts 129°
2026-05-06 14:18 43.79628 9.84915 36887 ft 461 kts 129°
2026-05-06 14:19 43.76213 9.92419 36911 ft 461 kts 129°
2026-05-06 14:19 43.72790 9.99924 36924 ft 461 kts 129°
2026-05-06 14:20 43.69366 10.07412 36905 ft 461 kts 129°
2026-05-06 14:20 43.65937 10.14893 36931 ft 460 kts 129°
2026-05-06 14:21 43.62512 10.22344 36886 ft 459 kts 129°
2026-05-06 14:21 43.59096 10.29758 36931 ft 457 kts 129°
2026-05-06 14:22 43.55686 10.37139 36921 ft 456 kts 129°
2026-05-06 14:22 43.52277 10.44499 36931 ft 455 kts 129°
2026-05-06 14:23 43.48868 10.51839 36944 ft 454 kts 129°
2026-05-06 14:23 43.45457 10.59165 36925 ft 454 kts 129°
2026-05-06 14:24 43.42068 10.66427 36935 ft 454 kts 129°
2026-05-06 14:24 43.38649 10.73735 36933 ft 455 kts 129°
2026-05-06 14:25 43.35224 10.81040 36959 ft 454 kts 129°
2026-05-06 14:25 43.31789 10.88344 36951 ft 455 kts 129°
2026-05-06 14:26 43.28350 10.95640 36933 ft 455 kts 129°
2026-05-06 14:26 43.24904 11.02934 36944 ft 456 kts 130°
2026-05-06 14:27 43.21471 11.10181 36940 ft 456 kts 130°
2026-05-06 14:27 43.18005 11.17482 36955 ft 457 kts 130°
2026-05-06 14:28 43.14527 11.24786 36942 ft 458 kts 130°
2026-05-06 14:28 43.11043 11.32090 36923 ft 458 kts 130°
2026-05-06 14:29 43.07551 11.39392 36943 ft 458 kts 130°
2026-05-06 14:29 43.04057 11.46678 36944 ft 458 kts 130°
2026-05-06 14:30 43.00559 11.53957 36945 ft 458 kts 130°
2026-05-06 14:30 42.97053 11.61231 36954 ft 459 kts 130°
2026-05-06 14:31 42.93540 11.68503 36936 ft 458 kts 130°
2026-05-06 14:31 42.90032 11.75750 36986 ft 458 kts 130°
2026-05-06 14:32 42.86531 11.82967 36985 ft 459 kts 130°
2026-05-06 14:32 42.82995 11.90229 36992 ft 460 kts 130°
2026-05-06 14:33 42.79410 11.97431 36937 ft 459 kts 131°
2026-05-06 14:33 42.75816 12.04596 36970 ft 458 kts 131°
2026-05-06 14:34 42.72233 12.11748 36984 ft 457 kts 131°
2026-05-06 14:34 42.68689 12.18954 36988 ft 460 kts 129°
2026-05-06 14:35 42.65376 12.26436 36989 ft 463 kts 127°
2026-05-06 14:35 42.62124 12.33943 36979 ft 464 kts 127°
2026-05-06 14:36 42.58824 12.41474 36963 ft 464 kts 127°
2026-05-06 14:36 42.55498 12.48982 36974 ft 463 kts 128°
2026-05-06 14:37 42.52174 12.56450 36988 ft 463 kts 128°
2026-05-06 14:37 42.48838 12.63922 37001 ft 464 kts 128°
2026-05-06 14:38 42.45493 12.71401 37008 ft 465 kts 128°
2026-05-06 14:38 42.42130 12.78902 36996 ft 465 kts 127°
2026-05-06 14:39 42.38770 12.86379 37007 ft 466 kts 128°
2026-05-06 14:39 42.35419 12.93819 36999 ft 466 kts 128°
2026-05-06 14:40 42.32062 13.01265 37045 ft 463 kts 128°
2026-05-06 14:40 42.28688 13.08704 37019 ft 465 kts 128°
2026-05-06 14:41 42.25291 13.16181 36962 ft 467 kts 128°
2026-05-06 14:41 42.21890 13.23659 36990 ft 469 kts 128°
2026-05-06 14:42 42.18476 13.31147 37010 ft 470 kts 128°
2026-05-06 14:42 42.15041 13.38687 36977 ft 472 kts 127°
2026-05-06 14:43 42.11634 13.46241 37000 ft 472 kts 128°
2026-05-06 14:43 42.08225 13.53795 36978 ft 471 kts 128°
2026-05-06 14:44 42.04809 13.61338 36973 ft 472 kts 128°
2026-05-06 14:45 41.99671 13.72640 36961 ft 471 kts 128°
2026-05-06 14:45 41.96267 13.80102 36941 ft 472 kts 128°
2026-05-06 14:46 41.92835 13.87604 36955 ft 473 kts 128°
2026-05-06 14:46 41.89388 13.95121 36955 ft 473 kts 128°
2026-05-06 14:47 41.85948 14.02603 36982 ft 468 kts 128°
2026-05-06 14:47 41.82526 14.10039 36961 ft 468 kts 128°
2026-05-06 14:48 41.79653 14.16261 36974 ft 469 kts 128°
2026-05-06 14:48 41.76235 14.23640 36960 ft 470 kts 127°
2026-05-06 14:49 41.72777 14.31092 36951 ft 472 kts 127°
2026-05-06 14:49 41.69304 14.38560 36963 ft 473 kts 128°
2026-05-06 14:50 41.65816 14.46041 36971 ft 475 kts 128°
2026-05-06 14:50 41.62308 14.53544 36975 ft 477 kts 128°
2026-05-06 14:51 41.58786 14.61061 36989 ft 477 kts 128°
2026-05-06 14:51 41.55248 14.68592 36973 ft 479 kts 128°
2026-05-06 14:52 41.51702 14.76123 36977 ft 480 kts 128°
2026-05-06 14:52 41.48142 14.83664 36980 ft 480 kts 128°
2026-05-06 14:53 41.44580 14.91192 36972 ft 480 kts 128°
2026-05-06 14:53 41.41014 14.98711 36957 ft 480 kts 128°
2026-05-06 14:54 41.37445 15.06214 36971 ft 480 kts 128°
2026-05-06 14:54 41.33873 15.13706 36991 ft 479 kts 128°
2026-05-06 14:55 41.30292 15.21198 36969 ft 480 kts 128°
2026-05-06 14:55 41.26710 15.28676 36978 ft 480 kts 128°
2026-05-06 14:56 41.23120 15.36152 36976 ft 479 kts 128°
2026-05-06 14:56 41.19526 15.43619 36974 ft 480 kts 128°
2026-05-06 14:57 41.15926 15.51082 36975 ft 480 kts 128°
2026-05-06 14:57 41.12274 15.58490 36967 ft 479 kts 129°
2026-05-06 14:58 41.08535 15.65812 36968 ft 479 kts 129°
2026-05-06 14:58 41.04817 15.73065 36978 ft 479 kts 129°
2026-05-06 14:59 41.01081 15.80372 36989 ft 479 kts 128°
2026-05-06 14:59 40.97336 15.87698 36979 ft 480 kts 128°
2026-05-06 15:00 40.93591 15.95012 36990 ft 480 kts 129°
2026-05-06 15:00 40.89839 16.02320 37005 ft 480 kts 129°
2026-05-06 15:01 40.86083 16.09618 36993 ft 480 kts 129°
2026-05-06 15:01 40.82324 16.16904 37008 ft 479 kts 128°
2026-05-06 15:02 40.78563 16.24178 37000 ft 480 kts 128°
2026-05-06 15:02 40.74797 16.31444 37027 ft 480 kts 128°
2026-05-06 15:03 40.71023 16.38709 37025 ft 479 kts 128°
2026-05-06 15:03 40.67253 16.45949 37046 ft 478 kts 128°
2026-05-06 15:04 40.63497 16.53146 37069 ft 476 kts 128°
2026-05-06 15:04 40.59775 16.60262 37097 ft 474 kts 128°
2026-05-06 15:05 40.56038 16.67389 37133 ft 472 kts 128°
2026-05-06 15:05 40.52308 16.74485 37149 ft 470 kts 128°
2026-05-06 15:06 40.48592 16.81540 37127 ft 468 kts 128°
2026-05-06 15:06 40.44889 16.88555 37027 ft 467 kts 128°
2026-05-06 15:07 40.41195 16.95536 37029 ft 465 kts 128°
2026-05-06 15:07 40.37505 17.02493 37036 ft 464 kts 128°
2026-05-06 15:08 40.33824 17.09418 37048 ft 462 kts 128°
2026-05-06 15:08 40.30140 17.16334 37023 ft 462 kts 128°
2026-05-06 15:09 40.26460 17.23227 37049 ft 461 kts 128°
2026-05-06 15:09 40.22777 17.30111 37030 ft 461 kts 128°
2026-05-06 15:10 40.19090 17.36987 37034 ft 462 kts 128°
2026-05-06 15:10 40.15394 17.43865 37029 ft 463 kts 128°
2026-05-06 15:11 40.11706 17.50713 37042 ft 464 kts 128°
2026-05-06 15:11 40.07983 17.57611 37036 ft 465 kts 128°
2026-05-06 15:12 40.04244 17.64522 37044 ft 466 kts 128°
2026-05-06 15:12 40.00495 17.71438 37043 ft 467 kts 128°
2026-05-06 15:13 39.96735 17.78360 37040 ft 467 kts 128°
2026-05-06 15:13 39.92974 17.85268 37045 ft 467 kts 128°
2026-05-06 15:14 39.89210 17.92167 37048 ft 466 kts 128°
2026-05-06 15:14 39.85456 17.99033 37048 ft 465 kts 128°
2026-05-06 15:15 39.81722 18.05847 37058 ft 464 kts 128°
2026-05-06 15:15 39.77971 18.12676 37052 ft 463 kts 128°
2026-05-06 15:16 39.74226 18.19480 37057 ft 462 kts 128°
2026-05-06 15:16 39.70484 18.26265 37061 ft 461 kts 128°
2026-05-06 15:17 39.66743 18.33032 37059 ft 461 kts 128°
2026-05-06 15:17 39.63002 18.39785 37055 ft 461 kts 128°
2026-05-06 15:18 39.59260 18.46527 37074 ft 460 kts 128°
2026-05-06 15:18 39.55511 18.53266 37057 ft 461 kts 128°
2026-05-06 15:19 39.51758 18.59998 37078 ft 461 kts 128°
2026-05-06 15:19 39.48002 18.66722 37073 ft 461 kts 129°
2026-05-06 15:20 39.44235 18.73452 37070 ft 462 kts 129°
2026-05-06 15:20 39.40482 18.80142 37077 ft 462 kts 129°
2026-05-06 15:21 39.36680 18.86906 37081 ft 462 kts 129°
2026-05-06 15:21 39.32894 18.93630 37071 ft 463 kts 129°
2026-05-06 15:22 39.29115 19.00355 37083 ft 463 kts 127°
2026-05-06 15:22 39.25665 19.07406 37109 ft 464 kts 123°
2026-05-06 15:23 39.22338 19.14553 37085 ft 465 kts 123°
2026-05-06 15:23 39.18995 19.21691 37074 ft 465 kts 123°
2026-05-06 15:24 39.15650 19.28748 37085 ft 464 kts 123°
2026-05-06 15:24 39.12271 19.35829 37091 ft 463 kts 124°
2026-05-06 15:25 39.08893 19.42884 37083 ft 463 kts 124°
2026-05-06 15:25 39.05515 19.49928 37093 ft 462 kts 124°
2026-05-06 15:26 39.02136 19.56959 37089 ft 462 kts 124°
2026-05-06 15:26 38.98758 19.63973 37093 ft 461 kts 124°
2026-05-06 15:27 38.95382 19.70970 37090 ft 461 kts 124°
2026-05-06 15:27 38.91998 19.77965 37097 ft 460 kts 124°
2026-05-06 15:28 38.88617 19.84940 37093 ft 460 kts 124°
2026-05-06 15:28 38.85230 19.91911 37101 ft 460 kts 124°
2026-05-06 15:29 38.81842 19.98870 37098 ft 460 kts 124°
2026-05-06 15:29 38.78467 20.05787 37105 ft 460 kts 124°
2026-05-06 15:30 38.75066 20.12743 37089 ft 461 kts 124°
2026-05-06 15:30 38.71654 20.19705 37121 ft 461 kts 124°
2026-05-06 15:31 38.68238 20.26663 37089 ft 462 kts 124°
2026-05-06 15:31 38.64814 20.33619 37104 ft 462 kts 124°
2026-05-06 15:32 38.59673 20.44037 37095 ft 462 kts 124°
2026-05-06 15:32 38.56234 20.50987 37107 ft 462 kts 124°
2026-05-06 15:33 38.53376 20.56751 37100 ft 462 kts 124°
2026-05-06 15:33 38.49931 20.63686 37105 ft 462 kts 124°
2026-05-06 15:34 38.46482 20.70614 37095 ft 462 kts 124°
2026-05-06 15:34 38.43026 20.77543 37106 ft 462 kts 124°
2026-05-06 15:35 38.39568 20.84458 37086 ft 463 kts 124°
2026-05-06 15:35 38.36102 20.91376 37111 ft 463 kts 124°
2026-05-06 15:36 38.32633 20.98285 37078 ft 463 kts 124°
2026-05-06 15:36 38.29158 21.05193 37097 ft 463 kts 124°
2026-05-06 15:37 38.25682 21.12085 37079 ft 463 kts 124°
2026-05-06 15:37 38.22195 21.18987 37082 ft 463 kts 124°
2026-05-06 15:38 38.18705 21.25878 37084 ft 463 kts 124°
2026-05-06 15:38 38.15212 21.32763 37075 ft 464 kts 124°
2026-05-06 15:39 38.11711 21.39648 37080 ft 464 kts 124°
2026-05-06 15:39 38.08231 21.46477 37080 ft 464 kts 124°
2026-05-06 15:40 38.04720 21.53352 37082 ft 464 kts 124°
2026-05-06 15:40 38.01202 21.60226 37101 ft 464 kts 124°
2026-05-06 15:41 37.97685 21.67086 37093 ft 465 kts 124°
2026-05-06 15:41 37.94159 21.73948 37102 ft 464 kts 124°
2026-05-06 15:42 37.90633 21.80795 37090 ft 464 kts 124°
2026-05-06 15:42 37.87100 21.87641 37071 ft 465 kts 124°
2026-05-06 15:43 37.83565 21.94477 37072 ft 465 kts 124°
2026-05-06 15:43 37.80027 22.01306 37086 ft 464 kts 124°
2026-05-06 15:44 37.76483 22.08131 37092 ft 464 kts 124°
2026-05-06 15:44 37.72938 22.14945 37098 ft 463 kts 124°
2026-05-06 15:45 37.69395 22.21741 37103 ft 463 kts 124°
2026-05-06 15:45 37.65847 22.28532 37102 ft 463 kts 124°
2026-05-06 15:46 37.62291 22.35323 37081 ft 464 kts 124°
2026-05-06 15:46 37.58726 22.42120 37074 ft 464 kts 125°
2026-05-06 15:47 37.55163 22.48898 37073 ft 464 kts 124°
2026-05-06 15:47 37.51594 22.55674 37077 ft 464 kts 124°
2026-05-06 15:48 37.48044 22.62399 37080 ft 464 kts 124°
2026-05-06 15:48 37.44463 22.69170 37073 ft 465 kts 124°
2026-05-06 15:49 37.40875 22.75940 37066 ft 465 kts 124°
2026-05-06 15:49 37.37283 22.82705 37069 ft 465 kts 124°
2026-05-06 15:50 37.33684 22.89468 37072 ft 465 kts 124°
2026-05-06 15:50 37.30077 22.96234 37065 ft 466 kts 124°
2026-05-06 15:51 37.26466 23.02992 37067 ft 466 kts 124°
2026-05-06 15:51 37.22853 23.09743 37067 ft 466 kts 125°
2026-05-06 15:52 37.19230 23.16498 37058 ft 466 kts 124°
2026-05-06 15:52 37.15606 23.23244 37065 ft 466 kts 124°
2026-05-06 15:53 37.12109 23.30088 37014 ft 468 kts 116°
2026-05-06 15:53 37.09743 23.37639 37151 ft 464 kts 110°
2026-05-06 15:54 37.07523 23.45268 37073 ft 466 kts 110°
2026-05-06 15:54 37.05262 23.52884 37056 ft 467 kts 110°
2026-05-06 15:55 37.02967 23.60484 37049 ft 467 kts 110°
2026-05-06 15:55 37.00662 23.68069 37059 ft 467 kts 110°
2026-05-06 15:56 36.98348 23.75664 37085 ft 466 kts 110°
2026-05-06 15:56 36.96060 23.83159 37049 ft 451 kts 110°
2026-05-06 15:57 36.94955 23.86770 37045 ft 438 kts 110°
2026-05-06 15:57 36.93893 23.90238 37064 ft 430 kts 110°
2026-05-06 15:57 36.91751 23.97222 37072 ft 432 kts 110°
2026-05-06 15:58 36.89591 24.04251 37082 ft 434 kts 110°
2026-05-06 15:58 36.87413 24.11316 37072 ft 437 kts 110°
2026-05-06 15:59 36.85220 24.18411 37085 ft 438 kts 110°
2026-05-06 15:59 36.83015 24.25529 37075 ft 440 kts 110°
2026-05-06 16:00 36.80808 24.32637 37079 ft 439 kts 110°
2026-05-06 16:00 36.78599 24.39735 37083 ft 438 kts 110°
2026-05-06 16:01 36.76389 24.46810 37078 ft 437 kts 111°
2026-05-06 16:01 36.75031 24.50202 37028 ft 438 kts 123°
2026-05-06 16:01 36.73233 24.53229 37150 ft 433 kts 132°
2026-05-06 16:02 36.71090 24.55873 37018 ft 434 kts 142°
2026-05-06 16:02 36.68768 24.58232 37179 ft 429 kts 142°
2026-05-06 16:02 36.64099 24.62888 37094 ft 430 kts 142°
2026-05-06 16:03 36.59445 24.67562 37089 ft 429 kts 142°
2026-05-06 16:03 36.54811 24.72255 37080 ft 429 kts 142°
2026-05-06 16:04 36.50184 24.76951 37096 ft 429 kts 142°
2026-05-06 16:04 36.45556 24.81644 37088 ft 430 kts 142°
2026-05-06 16:05 36.40917 24.86340 37084 ft 430 kts 142°
2026-05-06 16:05 36.36269 24.91035 37094 ft 430 kts 142°
2026-05-06 16:06 36.31618 24.95726 37088 ft 431 kts 142°
2026-05-06 16:06 36.26961 25.00417 37101 ft 432 kts 142°
2026-05-06 16:07 36.22322 25.05081 37084 ft 433 kts 142°
2026-05-06 16:07 36.17645 25.09776 37097 ft 433 kts 142°
2026-05-06 16:08 36.12960 25.14473 37081 ft 433 kts 142°
2026-05-06 16:08 36.08272 25.19165 37099 ft 433 kts 142°
2026-05-06 16:09 36.03584 25.23850 37089 ft 433 kts 142°
2026-05-06 16:09 35.98893 25.28530 37100 ft 433 kts 142°
2026-05-06 16:10 35.94205 25.33201 37087 ft 432 kts 142°
2026-05-06 16:10 35.89524 25.37856 37097 ft 432 kts 142°
2026-05-06 16:11 35.84845 25.42501 37089 ft 431 kts 142°
2026-05-06 16:11 35.80175 25.47133 37088 ft 431 kts 142°
2026-05-06 16:12 35.75539 25.51726 37095 ft 430 kts 142°
2026-05-06 16:12 35.70849 25.56365 37091 ft 430 kts 143°
2026-05-06 16:13 35.66212 25.60931 37100 ft 429 kts 143°
2026-05-06 16:13 35.61529 25.65481 37084 ft 429 kts 148°
2026-05-06 16:14 35.59076 25.66885 36989 ft 421 kts 172°
2026-05-06 16:14 35.56223 25.66999 37073 ft 405 kts 197°
2026-05-06 16:14 35.53674 25.65734 37104 ft 391 kts 221°
2026-05-06 16:14 35.51853 25.63349 37096 ft 381 kts 246°
2026-05-06 16:15 35.50991 25.60312 37117 ft 377 kts 259°
2026-05-06 16:15 35.50466 25.57187 37112 ft 371 kts 270°
2026-05-06 16:15 35.50684 25.54119 36763 ft 356 kts 289°
2026-05-06 16:15 35.51749 25.51413 36199 ft 357 kts 308°
2026-05-06 16:16 35.53606 25.49332 35799 ft 370 kts 328°
2026-05-06 16:16 35.56022 25.48196 35708 ft 377 kts 348°
2026-05-06 16:16 35.58643 25.48101 35865 ft 377 kts
2026-05-06 16:16 35.61232 25.48456 35731 ft 371 kts
2026-05-06 16:17 35.63800 25.48899 35003 ft 374 kts
2026-05-06 16:17 35.66371 25.49284 34428 ft 371 kts
2026-05-06 16:17 35.68072 25.49525 33911 ft 373 kts
2026-05-06 16:17 35.70655 25.49883 33127 ft 375 kts
2026-05-06 16:18 35.73251 25.50234 32344 ft 376 kts
2026-05-06 16:18 35.75863 25.50579 31518 ft 379 kts
2026-05-06 16:18 35.78489 25.50917 30716 ft 381 kts
2026-05-06 16:18 35.81130 25.51249 29892 ft 382 kts
2026-05-06 16:19 35.83778 25.51575 29005 ft 382 kts
2026-05-06 16:19 35.86420 25.51898 28134 ft 381 kts
2026-05-06 16:19 35.89061 25.52216 27283 ft 380 kts
2026-05-06 16:19 35.91689 25.52529 26460 ft 378 kts
2026-05-06 16:20 35.94301 25.52836 25654 ft 376 kts
2026-05-06 16:20 35.96899 25.53136 24882 ft 374 kts
2026-05-06 16:20 35.99481 25.53430 24123 ft 371 kts
2026-05-06 16:20 36.02044 25.53717 23310 ft 369 kts
2026-05-06 16:21 36.04555 25.54019 22411 ft 367 kts
2026-05-06 16:21 36.07001 25.55008 21429 ft 377 kts 25°
2026-05-06 16:21 36.09046 25.57043 20644 ft 383 kts 45°
2026-05-06 16:21 36.10446 25.59865 19813 ft 391 kts 65°
2026-05-06 16:22 36.11014 25.63167 19030 ft 398 kts 85°
2026-05-06 16:22 36.10671 25.66563 18245 ft 402 kts 105°
2026-05-06 16:22 36.09442 25.69657 17388 ft 402 kts 126°
2026-05-06 16:22 36.07480 25.72074 16558 ft 399 kts 146°
2026-05-06 16:23 36.05007 25.73546 15769 ft 392 kts 166°
2026-05-06 16:23 36.02344 25.73950 15092 ft 382 kts 182°
2026-05-06 16:23 35.99723 25.73860 14477 ft 373 kts 185°
2026-05-06 16:23 35.97163 25.73617 13887 ft 365 kts 189°
2026-05-06 16:24 35.94683 25.73088 13198 ft 357 kts 199°
2026-05-06 16:24 35.92467 25.71870 12832 ft 340 kts 213°
2026-05-06 16:24 35.90456 25.70441 12403 ft 330 kts 212°
2026-05-06 16:24 35.88499 25.69059 12099 ft 318 kts 212°
2026-05-06 16:25 35.86605 25.67731 11759 ft 311 kts 212°
2026-05-06 16:25 35.84731 25.66423 11448 ft 309 kts 212°
2026-05-06 16:25 35.82867 25.65126 11122 ft 307 kts 212°
2026-05-06 16:25 35.81010 25.63838 10808 ft 306 kts 212°
2026-05-06 16:26 35.79156 25.62555 10491 ft 305 kts 211°
2026-05-06 16:26 35.77314 25.61283 10209 ft 302 kts 211°
2026-05-06 16:26 35.75504 25.60035 10074 ft 295 kts 211°
2026-05-06 16:26 35.73707 25.58797 9643 ft 296 kts 211°
2026-05-06 16:27 35.71941 25.57581 9400 ft 288 kts 211°
2026-05-06 16:27 35.70191 25.56377 9081 ft 288 kts 211°
2026-05-06 16:27 35.68450 25.55179 8794 ft 286 kts 211°
2026-05-06 16:27 35.66720 25.53990 8498 ft 284 kts 211°
2026-05-06 16:28 35.64998 25.52806 8213 ft 283 kts 211°
2026-05-06 16:28 35.63284 25.51629 7936 ft 281 kts 211°
2026-05-06 16:28 35.61576 25.50456 7641 ft 280 kts 211°
2026-05-06 16:28 35.59880 25.49292 7350 ft 279 kts 211°
2026-05-06 16:29 35.58187 25.48131 7059 ft 278 kts 211°
2026-05-06 16:29 35.56502 25.46975 6781 ft 277 kts 211°
2026-05-06 16:29 35.54824 25.45825 6489 ft 276 kts 211°
2026-05-06 16:29 35.53139 25.44670 6085 ft 279 kts 211°
2026-05-06 16:30 35.51476 25.43532 5832 ft 274 kts 211°
2026-05-06 16:30 35.50363 25.42771 5610 ft 269 kts 211°
2026-05-06 16:30 35.48274 25.41345 5469 ft 249 kts 211°
2026-05-06 16:30 35.46784 25.40327 5329 ft 242 kts 211°
2026-05-06 16:31 35.45241 25.39595 5162 ft 239 kts 185°
2026-05-06 16:31 35.43652 25.39977 5077 ft 230 kts 156°
2026-05-06 16:31 35.42273 25.40858 5029 ft 218 kts 151°
2026-05-06 16:31 35.40986 25.41761 4867 ft 209 kts 151°
2026-05-06 16:32 35.39740 25.42634 4660 ft 203 kts 151°
2026-05-06 16:32 35.38531 25.43474 4471 ft 196 kts 150°
2026-05-06 16:32 35.37297 25.44107 4213 ft 190 kts 178°
2026-05-06 16:32 35.36087 25.43676 4105 ft 184 kts 219°
2026-05-06 16:33 35.35284 25.42470 3929 ft 185 kts 244°
2026-05-06 16:33 35.34722 25.41061 3744 ft 184 kts 246°
2026-05-06 16:33 35.34183 25.39641 3535 ft 184 kts 246°
2026-05-06 16:34 35.33137 25.36900 3117 ft 169 kts 246°
2026-05-06 16:34 35.32822 25.35588 3006 ft 158 kts 274°
2026-05-06 16:34 35.32917 25.34248 2843 ft 160 kts 274°
2026-05-06 16:34 35.32985 25.32889 2546 ft 160 kts 275°
2026-05-06 16:35 35.33038 25.31552 2364 ft 154 kts 275°
2026-05-06 16:35 35.33162 25.30252 2151 ft 154 kts 278°
2026-05-06 16:35 35.33277 25.28966 1924 ft 149 kts 275°
2026-05-06 16:35 35.33363 25.27702 1669 ft 150 kts 276°
2026-05-06 16:36 35.33444 25.26456 1435 ft 148 kts 275°
2026-05-06 16:36 35.33542 25.25192 1173 ft 152 kts 277°
2026-05-06 16:36 35.33634 25.23901 921 ft 152 kts 274°
2026-05-06 16:36 35.33682 25.22611 693 ft 151 kts 271°
2026-05-06 16:37 35.33760 25.21306 538 ft 154 kts 276°
2026-05-06 16:37 35.33841 25.20020 316 ft 149 kts 275°
2026-05-06 16:37 35.33929 25.18750 116 ft 147 kts 276°
2026-05-06 16:37 35.33999 25.17704 94 ft 92 kts 273°
2026-05-06 16:38 35.34024 25.17256 82 ft 30 kts 270°
2026-05-06 16:38 35.33992 25.17101 70 ft 9 kts 244°
2026-05-06 16:38 35.33962 25.17042 68 ft 5 kts 223°
2026-05-06 16:39 35.33960 25.17042 76 ft 1 kts 200°
2026-05-06 16:40 35.33944 25.17063 72 ft 2 kts 119°
2026-05-06 16:40 35.33942 25.17068 69 ft 2 kts 113°
2026-05-06 16:40 35.33940 25.17082 71 ft 8 kts 98°
2026-05-06 16:40 35.33935 25.17166 82 ft 12 kts 94°
2026-05-06 16:41 35.33926 25.17312 86 ft 20 kts 94°
2026-05-06 16:41 35.33867 25.17357 83 ft 13 kts 194°
2026-05-06 16:41 35.33868 25.17280 82 ft 8 kts 321°
2026-05-06 16:41 35.33875 25.17272 83 ft 0 kts 317°